Reims-Prunay, France

2:02 AM CET on February 20, 2017 (GMT +0100)
Prunay

Weather History for LFQA - January, 2014

Change the Weather History Date:

Friday, January 10, 2014

  Actual Average Record
Temperature  
Mean Temperature 38 °F -  
Max Temperature 45 °F - - ()
Min Temperature 30 °F - - ()
Degree Days  
Heating Degree Days 28    
Moisture  
Dew Point 37 °F    
Average Humidity 94    
Maximum Humidity 100    
Minimum Humidity 82    
Precipitation  
Precipitation 0.00 in - - ()
Sea Level Pressure  
Sea Level Pressure 30.08 in    
Wind  
Wind Speed 3 mph ()    
Max Wind Speed 8 mph    
Max Gust Speed -    
Visibility 6.0 miles    
Events Fog    
T = Trace of Precipitation, MM = Missing Value Source: Averaged Metar Reports

Daily Weather History Graph

Daily Weather History Graph

Search for Another Location

Airport or City:

Trip Planner

Search our weather history database for the weather conditions in past years. The results will help you decide how hot, cold, wet, or windy it might be!

Date:

Astronomy

Jan. 10, 2014 Rise Set
Actual Time 8:35 AM CET 5:06 PM CET
Civil Twilight 7:59 AM CET 5:42 PM CET
Nautical Twilight 7:19 AM CET 6:22 PM CET
Astronomical Twilight 6:40 AM CET 7:01 PM CET
Moon 1:08 PM CET (1/10) 3:18 AM CET (1/10)
Length of Visible Light 9h 43m
Length of Day
8h 30m
Waxing Gibbous, 73% of the Moon is Illuminated
Jan 10
Waxing Gibbous
Jan 16
Full
Jan 24
Last Quarter
Jan 30
New
Feb 6
First Quarter

Hourly Weather History & Observations

Time (CET) Temp. Windchill Dew Point Humidity Pressure Visibility Wind Dir Wind Speed Gust Speed Precip Events Conditions
1:00 AM 39.2 °F - 37.4 °F 93% 30.04 in 6.2 mi Variable 1.2 mph - N/A   Mostly Cloudy
1:30 AM 42.8 °F 38.6 °F 39.2 °F 87% 30.04 in 6.2 mi WSW 6.9 mph - N/A   Partly Cloudy
2:00 AM 42 °F - 39 °F 87% 30.06 in 12 mi West 5.8 mph - -   Clear
2:00 AM 42.8 °F 39.3 °F 39.2 °F 87% 30.04 in 6.2 mi West 5.8 mph - N/A   Unknown
2:30 AM 42.8 °F 38.0 °F 39.2 °F 87% 30.04 in 6.2 mi WSW 8.1 mph - N/A   Unknown
3:00 AM 43 °F - 39 °F 82% 30.08 in 12 mi West 6.9 mph - -   Clear
3:00 AM 42.8 °F 38.6 °F 39.2 °F 87% 30.06 in 6.2 mi West 6.9 mph - N/A   Unknown
3:30 AM 41.0 °F - 37.4 °F 87% 30.06 in 6.2 mi Variable 2.3 mph - N/A   Unknown
4:00 AM 36 °F - 34 °F 91% 30.09 in 12 mi ESE 3.5 mph - -   Clear
4:00 AM 37.4 °F 34.9 °F 33.8 °F 87% 30.06 in 6.2 mi Variable 3.5 mph - N/A   Unknown
4:30 AM 35.6 °F - 33.8 °F 93% 30.06 in 6.2 mi Variable 1.2 mph - N/A   Unknown
5:00 AM 35 °F - 35 °F 97% 30.09 in 12 mi ESE 1.2 mph - -   Clear
5:00 AM 35.6 °F - 33.8 °F 93% 30.06 in 6.2 mi Calm Calm - N/A   Unknown
5:30 AM 32.0 °F - 32.0 °F 100% 30.06 in 6.2 mi Variable 2.3 mph - N/A   Unknown
6:00 AM 32 °F - 31 °F 97% 30.09 in 10 mi ENE 2.3 mph - -   Clear
6:00 AM 32.0 °F - 32.0 °F 100% 30.06 in 6.2 mi ENE 2.3 mph - N/A   Unknown
6:30 AM 32.0 °F - 32.0 °F 100% 30.06 in 6.2 mi Calm Calm - N/A   Unknown
7:00 AM 32 °F - 31 °F 95% 30.10 in 7 mi East 1.2 mph - -   Clear
7:00 AM 32.0 °F - 32.0 °F 100% 30.06 in 6.2 mi Calm Calm - N/A   Unknown
7:30 AM 30.2 °F 25.4 °F 30.2 °F 100% 30.06 in 1.9 mi East 4.6 mph - N/A   Mist
8:00 AM 31 °F - 31 °F 100% 30.11 in 0 mi East 5.8 mph - - Fog Heavy Fog
8:00 AM 32.0 °F 26.4 °F 32.0 °F 100% 30.09 in 0.2 mi East 5.8 mph - N/A Fog Light Freezing Fog
8:30 AM 32.0 °F - 32.0 °F 100% 30.09 in 0.1 mi Variable 2.3 mph - N/A Fog Fog
9:00 AM 31 °F - 31 °F 100% 30.13 in 0 mi North 3.5 mph - - Fog Heavy Fog
9:00 AM 32.0 °F 28.7 °F 32.0 °F 100% 30.09 in 0.2 mi North 3.5 mph - N/A Fog Light Freezing Fog
9:30 AM 32.0 °F - 32.0 °F 100% 30.12 in 0.2 mi Calm Calm - N/A Fog Fog
10:00 AM 34 °F - 34 °F 100% 30.15 in 0 mi West 1.2 mph - - Fog Partial Fog
10:00 AM 33.8 °F - 33.8 °F 100% 30.12 in 0.5 mi Variable 1.2 mph - N/A Fog Fog
10:30 AM 39.2 °F - 37.4 °F 93% 30.12 in - Calm Calm - N/A   Mostly Cloudy
11:00 AM 40 °F - 39 °F 97% 30.15 in 4 mi ESE 2.3 mph - -   Clear
11:00 AM 39.2 °F - 39.2 °F 100% 30.12 in 3.7 mi Variable 2.3 mph - N/A   Overcast
11:30 AM 41.0 °F - 41.0 °F 100% 30.12 in 6.2 mi Variable 2.3 mph - N/A   Overcast
12:00 PM 43 °F - 42 °F 96% 30.14 in 10 mi SSW 4.6 mph - -   Clear
12:00 PM 42.8 °F 40.1 °F 42.8 °F 100% 30.12 in 6.2 mi SSW 4.6 mph - N/A   Mostly Cloudy
12:30 PM 42.8 °F 39.3 °F 42.8 °F 100% 30.09 in 6.2 mi SSW 5.8 mph - N/A   Overcast
1:00 PM 44 °F - 42 °F 88% 30.12 in 12 mi SSW 6.9 mph - -   Clear
1:00 PM 42.8 °F 38.6 °F 41.0 °F 93% 30.09 in 6.2 mi SSW 6.9 mph - N/A   Overcast
1:30 PM 44.6 °F 42.2 °F 41.0 °F 87% 30.09 in 6.2 mi SSW 4.6 mph - N/A   Mostly Cloudy
2:00 PM 44 °F - 42 °F 88% 30.11 in 12 mi South 6.9 mph - -   Clear
2:00 PM 44.6 °F 40.7 °F 41.0 °F 87% 30.09 in 6.2 mi South 6.9 mph - N/A   Overcast
2:30 PM 44.6 °F 42.2 °F 41.0 °F 87% 30.09 in 6.2 mi SSW 4.6 mph - N/A   Overcast
3:00 PM 45 °F - 41 °F 82% 30.10 in 12 mi SSW 3.5 mph - -   Clear
3:00 PM 44.6 °F 43.1 °F 41.0 °F 87% 30.06 in 6.2 mi SSW 3.5 mph - N/A   Overcast
3:30 PM 44.6 °F 42.2 °F 41.0 °F 87% 30.06 in 6.2 mi SSW 4.6 mph - N/A   Overcast
4:00 PM 44 °F - 41 °F 83% 30.10 in 12 mi SSW 6.9 mph - -   Clear
4:00 PM 44.6 °F 40.7 °F 41.0 °F 87% 30.09 in 6.2 mi SSW 6.9 mph - N/A   Overcast
4:30 PM 42.8 °F 40.1 °F 41.0 °F 93% 30.09 in 6.2 mi South 4.6 mph - N/A   Mostly Cloudy
5:00 PM 43 °F - 40 °F 87% 30.09 in 12 mi SSE 2.3 mph - -   Clear
5:00 PM 42.8 °F - 41.0 °F 93% 30.06 in 6.2 mi Variable 2.3 mph - N/A   Overcast
5:30 PM 42.8 °F 39.3 °F 41.0 °F 93% 30.06 in 6.2 mi SSW 5.8 mph - N/A   Overcast
6:00 PM 42 °F - 40 °F 88% 30.10 in 12 mi SSW 4.6 mph - -   Clear
6:00 PM 42.8 °F 40.1 °F 39.2 °F 87% 30.06 in 6.2 mi SSW 4.6 mph - N/A   Mostly Cloudy
6:30 PM 41.0 °F - 37.4 °F 87% 30.06 in 6.2 mi Calm Calm - N/A   Mostly Cloudy
7:00 PM 38 °F - 36 °F 92% 30.09 in 11 mi North 1.2 mph - -   Clear
7:00 PM 37.4 °F - 37.4 °F 100% 30.06 in 6.2 mi North 1.2 mph - N/A   Unknown
7:30 PM 37.4 °F 34.9 °F 35.6 °F 93% 30.06 in 6.2 mi North 3.5 mph - N/A   Mostly Cloudy
8:00 PM 37 °F - 36 °F 96% 30.10 in 11 mi East 1.2 mph - -   Clear
8:00 PM 37.4 °F - 35.6 °F 93% 30.06 in 6.2 mi Calm Calm - N/A   Overcast
8:30 PM 37.4 °F 34.9 °F 37.4 °F 100% 30.06 in 5.6 mi Variable 3.5 mph - N/A   Overcast
9:00 PM 37 °F - 37 °F 98% 30.10 in 3 mi ESE 2.3 mph - -   Mist
9:00 PM 37.4 °F - 37.4 °F 100% 30.06 in - Variable 2.3 mph - N/A   Overcast
9:30 PM 37.4 °F 34.9 °F 37.4 °F 100% 30.06 in 0.2 mi East 3.5 mph - N/A Fog Fog
10:00 PM 38 °F - 38 °F 99% 30.09 in 0 mi East 2.3 mph - - Fog Partial Fog
10:00 PM 39.2 °F - 37.4 °F 93% 30.06 in 0.2 mi East 2.3 mph - N/A Fog Fog
10:30 PM 39.2 °F - 37.4 °F 93% 30.06 in 0.4 mi ENE 2.3 mph - N/A Fog Fog
11:00 PM 38 °F - 38 °F 100% 30.09 in 2 mi ENE 2.3 mph - -   Mist
11:00 PM 39.2 °F - 37.4 °F 93% 30.06 in - ENE 2.3 mph - N/A   Overcast
11:30 PM 39.2 °F - 37.4 °F 93% 30.06 in - ENE 2.3 mph - N/A Fog Fog